When you browse on this site, cookies collect data to enhance your experience and personalize the content and advertising you see.
Visit our Privacy Policy to learn more. By continuing to use the site, you agree to this use of cookies and data.
  • In Romania
  • List of Countries
  • For 7 days
  • Water Temperature
  • Satellite Maps
  • Weather Map
  • Weather Widgets
  • user-avatar
    Login

    Hourly Weather San Fernando de Apure

    Today, 20 April, Saturday

    Time Temperature Precipitation Wind Pressure Humidity
    00:00 +32°C° 0.1 mm 2 mps 753 mmHg 57%
    01:00 +31°C° 0.1 mm 2 mps 753 mmHg 59%
    02:00 +31°C° 0.1 mm 2 mps 753 mmHg 61%
    03:00 +30°C° 0 mm 3 mps 753 mmHg 62%
    04:00 +30°C° 0 mm 3 mps 753 mmHg 63%
    05:00 +30°C° 0 mm 3 mps 753 mmHg 65%
    06:00 +30°C° 0.1 mm 3 mps 754 mmHg 64%
    07:00 +30°C° 0.1 mm 3 mps 754 mmHg 63%
    08:00 +30°C° 0.1 mm 4 mps 755 mmHg 62%
    09:00 +32°C° 0 mm 4 mps 755 mmHg 59%
    10:00 +33°C° 0 mm 4 mps 755 mmHg 56%
    11:00 +34°C° 0 mm 4 mps 756 mmHg 53%
    12:00 +35°C° 0 mm 3 mps 755 mmHg 49%
    13:00 +36°C° 0 mm 3 mps 754 mmHg 46%
    14:00 +37°C° 0 mm 2 mps 753 mmHg 42%
    15:00 +37°C° 0 mm 2 mps 752 mmHg 42%
    16:00 +37°C° 0 mm 2 mps 752 mmHg 41%
    17:00 +36°C° 0 mm 1 mps 751 mmHg 41%
    18:00 +35°C° 0 mm 1 mps 751 mmHg 43%
    19:00 +34°C° 0 mm 1 mps 752 mmHg 45%
    20:00 +32°C° 0 mm 0 mps 752 mmHg 48%
    21:00 +31°C° 0 mm 0 mps 753 mmHg 48%
    22:00 +31°C° 0 mm 0 mps 753 mmHg 49%
    23:00 +31°C° 0 mm 0 mps 754 mmHg 50%

    Tomorrow, 21 April, Sunday

    Time Temperature Precipitation Wind Pressure Humidity
    00:00 +32°C° 0.8 mm 1 mps 753 mmHg 55%
    01:00 +31°C° 0.8 mm 1 mps 753 mmHg 61%
    02:00 +30°C° 0.8 mm 1 mps 753 mmHg 66%
    03:00 +30°C° 1.1 mm 1 mps 753 mmHg 69%
    04:00 +29°C° 1.1 mm 2 mps 753 mmHg 72%
    05:00 +29°C° 1.1 mm 2 mps 753 mmHg 75%
    06:00 +29°C° 0 mm 2 mps 753 mmHg 72%
    07:00 +30°C° 0 mm 3 mps 754 mmHg 70%
    08:00 +30°C° 0 mm 3 mps 755 mmHg 67%
    09:00 +31°C° 0 mm 3 mps 755 mmHg 61%
    10:00 +34°C° 0 mm 4 mps 755 mmHg 55%
    11:00 +35°C° 0 mm 4 mps 755 mmHg 48%
    12:00 +36°C° 0 mm 3 mps 754 mmHg 44%
    13:00 +38°C° 0 mm 3 mps 753 mmHg 40%
    14:00 +39°C° 0 mm 3 mps 752 mmHg 36%
    15:00 +39°C° 0 mm 3 mps 751 mmHg 36%
    16:00 +39°C° 0 mm 2 mps 750 mmHg 36%
    17:00 +39°C° 0 mm 2 mps 750 mmHg 35%
    18:00 +38°C° 0 mm 2 mps 750 mmHg 38%
    19:00 +35°C° 0 mm 1 mps 751 mmHg 40%
    20:00 +34°C° 0 mm 1 mps 751 mmHg 42%
    21:00 +34°C° 0 mm 1 mps 752 mmHg 43%
    22:00 +34°C° 0 mm 1 mps 752 mmHg 44%
    23:00 +33°C° 0 mm 1 mps 753 mmHg 44%

    Day after tomorrow, 22 April, Monday

    Time Temperature Precipitation Wind Pressure Humidity
    00:00 +33°C° 0 mm 1 mps 753 mmHg 48%
    01:00 +32°C° 0 mm 2 mps 752 mmHg 52%
    02:00 +31°C° 0 mm 2 mps 752 mmHg 57%
    03:00 +31°C° 0 mm 2 mps 752 mmHg 59%
    04:00 +30°C° 0 mm 2 mps 752 mmHg 62%
    05:00 +30°C° 0 mm 2 mps 752 mmHg 65%
    06:00 +30°C° 0 mm 3 mps 752 mmHg 63%
    07:00 +30°C° 0 mm 3 mps 753 mmHg 61%
    08:00 +32°C° 0 mm 4 mps 753 mmHg 60%
    09:00 +33°C° 0 mm 4 mps 753 mmHg 55%
    10:00 +34°C° 0 mm 4 mps 754 mmHg 50%
    11:00 +36°C° 0 mm 4 mps 754 mmHg 45%
    12:00 +37°C° 0 mm 3 mps 753 mmHg 42%
    13:00 +38°C° 0 mm 3 mps 751 mmHg 38%
    14:00 +39°C° 0 mm 3 mps 750 mmHg 35%
    15:00 +39°C° 0 mm 2 mps 750 mmHg 34%
    16:00 +39°C° 0 mm 2 mps 749 mmHg 33%
    17:00 +39°C° 0 mm 1 mps 749 mmHg 31%
    18:00 +37°C° 0 mm 1 mps 749 mmHg 34%
    19:00 +36°C° 0 mm 1 mps 750 mmHg 36%
    20:00 +33°C° 0 mm 0 mps 751 mmHg 38%
    21:00 +35°C° 0 mm 1 mps 751 mmHg 42%
    22:00 +34°C° 0 mm 1 mps 752 mmHg 45%
    23:00 +34°C° 0 mm 2 mps 752 mmHg 49%

    23 April, Tuesday

    Time Temperature Precipitation Wind Pressure Humidity
    00:00 +33°C° 0.2 mm 1 mps 752 mmHg 53%
    01:00 +32°C° 0.2 mm 1 mps 752 mmHg 58%
    02:00 +31°C° 0.2 mm 1 mps 751 mmHg 62%
    03:00 +31°C° 0.7 mm 1 mps 752 mmHg 65%
    04:00 +30°C° 0.7 mm 2 mps 752 mmHg 68%
    05:00 +29°C° 0.7 mm 2 mps 752 mmHg 71%
    06:00 +29°C° 0.9 mm 2 mps 752 mmHg 72%
    07:00 +29°C° 0.9 mm 3 mps 753 mmHg 73%
    08:00 +29°C° 0.9 mm 3 mps 754 mmHg 73%
    09:00 +30°C° 0.5 mm 3 mps 754 mmHg 69%
    10:00 +31°C° 0.5 mm 3 mps 754 mmHg 65%
    11:00 +33°C° 0.5 mm 3 mps 754 mmHg 61%
    12:00 +34°C° 0.3 mm 2 mps 753 mmHg 57%
    13:00 +35°C° 0.3 mm 2 mps 752 mmHg 52%
    14:00 +35°C° 0.3 mm 1 mps 751 mmHg 48%
    15:00 +35°C° 0 mm 1 mps 751 mmHg 49%
    16:00 +35°C° 0 mm 1 mps 751 mmHg 49%
    17:00 +33°C° 0 mm 0 mps 750 mmHg 50%
    18:00 +33°C° 0.1 mm 1 mps 751 mmHg 55%
    19:00 +32°C° 0.1 mm 1 mps 752 mmHg 61%
    20:00 +31°C° 0.1 mm 2 mps 752 mmHg 67%
    21:00 +30°C° 0.5 mm 1 mps 752 mmHg 72%
    22:00 +30°C° 0.5 mm 1 mps 753 mmHg 77%
    23:00 +29°C° 0.5 mm 1 mps 753 mmHg 82%

    24 April, Wednesday

    Time Temperature Precipitation Wind Pressure Humidity
    00:00 +29°C° 1 mm 1 mps 753 mmHg 82%
    01:00 +27°C° 1 mm 0 mps 752 mmHg 82%
    02:00 +27°C° 1 mm 0 mps 752 mmHg 82%
    03:00 +27°C° 1.5 mm 0 mps 752 mmHg 82%
    04:00 +28°C° 1.5 mm 1 mps 752 mmHg 83%
    05:00 +28°C° 1.5 mm 1 mps 752 mmHg 84%
    06:00 +28°C° 3.8 mm 1 mps 753 mmHg 84%
    07:00 +28°C° 3.8 mm 1 mps 754 mmHg 85%
    08:00 +28°C° 3.8 mm 2 mps 754 mmHg 85%
    09:00 +28°C° 2.2 mm 2 mps 754 mmHg 85%
    10:00 +28°C° 2.2 mm 2 mps 754 mmHg 84%
    11:00 +28°C° 2.2 mm 2 mps 754 mmHg 84%
    12:00 +28°C° 1.4 mm 2 mps 754 mmHg 82%
    13:00 +29°C° 1.4 mm 2 mps 753 mmHg 80%
    14:00 +29°C° 1.4 mm 2 mps 752 mmHg 78%
    15:00 +30°C° 0.7 mm 2 mps 752 mmHg 77%
    16:00 +30°C° 0.7 mm 2 mps 752 mmHg 75%
    17:00 +30°C° 0.7 mm 1 mps 751 mmHg 74%
    18:00 +29°C° 0.9 mm 1 mps 752 mmHg 78%
    19:00 +29°C° 0.9 mm 1 mps 753 mmHg 82%
    20:00 +28°C° 0.9 mm 1 mps 753 mmHg 86%
    21:00 +28°C° 0.1 mm 1 mps 753 mmHg 86%
    22:00 +26°C° 0.1 mm 0 mps 754 mmHg 85%
    23:00 +26°C° 0.1 mm 0 mps 754 mmHg 85%

    25 April, Thursday

    Time Temperature Precipitation Wind Pressure Humidity
    00:00 +25°C° 1.3 mm 0 mps 754 mmHg 87%
    01:00 +25°C° 1.3 mm 0 mps 753 mmHg 88%
    02:00 +25°C° 1.3 mm 0 mps 753 mmHg 90%
    03:00 +25°C° 1.2 mm 0 mps 753 mmHg 91%
    04:00 +25°C° 1.2 mm 0 mps 753 mmHg 91%
    05:00 +25°C° 1.2 mm 0 mps 753 mmHg 92%
    06:00 +25°C° 2 mm 0 mps 754 mmHg 92%
    07:00 +27°C° 2 mm 1 mps 754 mmHg 92%
    08:00 +27°C° 2 mm 1 mps 755 mmHg 92%
    09:00 +26°C° 11.1 mm 1 mps 755 mmHg 93%
    10:00 +26°C° 11.1 mm 1 mps 755 mmHg 95%
    11:00 +26°C° 11.1 mm 1 mps 755 mmHg 96%
    12:00 +26°C° 5.3 mm 1 mps 755 mmHg 95%
    13:00 +26°C° 5.3 mm 1 mps 754 mmHg 94%
    14:00 +26°C° 5.3 mm 1 mps 754 mmHg 94%
    15:00 +27°C° 0.3 mm 1 mps 753 mmHg 93%
    16:00 +27°C° 0.3 mm 1 mps 753 mmHg 92%
    17:00 +27°C° 0.3 mm 1 mps 752 mmHg 92%
    18:00 +27°C° 0 mm 1 mps 753 mmHg 93%
    19:00 +27°C° 0 mm 1 mps 753 mmHg 93%
    20:00 +26°C° 0 mm 1 mps 754 mmHg 94%
    21:00 +26°C° 0.1 mm 1 mps 754 mmHg 94%
    22:00 +26°C° 0.1 mm 1 mps 755 mmHg 94%
    23:00 +26°C° 0.1 mm 1 mps 755 mmHg 94%
    Show more